Regional Weather Roundup
Issued by NWS

Home | Current Version | Previous Version | Text Only | Print | Product List | Glossary Off
Versions: 1 2 3 4 5 6 7 8 9 10 11 12 13 14 15 16 17 18 19 20 21 22 23 24 25 26 27 28 29 30 31 32 33 34 35 36 37 38 39 40 41 42 43 44 45 46 47 48 49 50

421
ASUS44 KJAN 251210
RWRMS

MISSISSIPPI HOURLY WEATHER ROUNDUP
NATIONAL WEATHER SERVICE JACKSON MS
600 AM CST TUE NOV 25 2014

NOTE: "FAIR: INDICATES FEW OR NO CLOUDS BELOW 12,000 FEET WITH NO
SIGNIFICANT WEATHER AND/OR OBSTRUCTIONS TO VISIBILITY.

MSZ001>002-007>008-010>013-018>021-025>028-034>036-251300-
NORTHWEST MISSISSIPPI

CITY           SKY/WX    TMP DP  RH WIND       PRES   REMARKS
CLARKSDALE     FAIR      36  32  87 NW6       30.18S WCI  31
CLEVELAND      FAIR      37  33  85 N6        30.18R WCI  33
GREENWOOD      CLEAR     31  29  92 CALM      30.17S
6HR MIN TEMP:  29; 6HR MAX TEMP:  37;

GREENVILLE     CLEAR     40  30  67 N5        30.18R
6HR MIN TEMP:  37; 6HR MAX TEMP:  46;

GRENADA        FAIR      30  30 100 CALM      30.16F
OLIVE BRANCH   CLEAR     34  30  86 NW5       30.17R WCI  30
OXFORD         FAIR      28  27  93 CALM      30.16F
TUNICA         SUNNY     34  30  86 NW7       30.18F WCI  28
$$

MSZ003>006-009-014>017-022>024-029>033-037>039-251300-
NORTHEAST MISSISSIPPI

CITY           SKY/WX    TMP DP  RH WIND       PRES   REMARKS
COLUMBUS AFB   CLEAR     33  32  97 CALM      30.14R
6HR MIN TEMP:  32; 6HR MAX TEMP:  44;

CORINTH        FAIR      30  28  93 CALM      30.16R
GOLDN TRIANGLE CLEAR     37  32  81 NW5       30.14R WCI  34
STARKVILLE       N/A     32  32 100 CALM      30.14S
TUPELO         CLEAR     39  30  70 N6        30.15R WCI  35
6HR MIN TEMP:  35; 6HR MAX TEMP:  40;

$$

MSZ040-058-251300-
CENTRAL MISSISSIPPI

CITY           SKY/WX    TMP DP  RH WIND       PRES   REMARKS
JACKSON INTL   CLEAR     34  30  85 CALM      30.15R
6HR MIN TEMP:  34; 6HR MAX TEMP:  46;

JACKSON HAWKNS CLEAR     38  33  82 CALM      30.15R
6HR MIN TEMP:  38; 6HR MAX TEMP:  47;

MERIDIAN KEY   MOCLDY    43  37  79 N9        30.13S
6HR MIN TEMP:  41; 6HR MAX TEMP:  44;

MERIDIAN NAS   PTCLDY    42  37  82 N5        30.13S
6HR MIN TEMP:  41; 6HR MAX TEMP:  45; 6HR PCP: TRACE;

RAYMOND        FAIR      32  28  86 CALM      30.17R
VICKSBURG      CLEAR     30  27  88 CALM      30.18R
6HR MIN TEMP:  28; 6HR MAX TEMP:  36;

$$

MSZ059>079-251300-
SOUTH MISSISSIPPI

CITY           SKY/WX    TMP DP  RH WIND       PRES   REMARKS
BROOKHAVEN     FAIR      43  34  70 NW5       30.16R
COLUMBIA       CLOUDY    41  41 100 MISG        N/A
HATTIESBURG    CLEAR     45  39  79 N3        30.14R
6HR MIN TEMP:  44; 6HR MAX TEMP:  50;

MCCOMB         CLEAR     41  35  79 N5        30.15R
6HR MIN TEMP:  40; 6HR MAX TEMP:  51;

NATCHEZ        CLEAR     36  32  87 CALM      30.18R
6HR MIN TEMP:  34; 6HR MAX TEMP:  46;

PINE BELT      CLEAR     43  36  75 NW3       30.14R
6HR MIN TEMP:  43; 6HR MAX TEMP:  48;

$$

MSZ080>082-251300-
COASTAL MISSISSIPPI

CITY           SKY/WX    TMP DP  RH WIND       PRES   REMARKS
BILOXI         MOCLDY    53  37  56 NE9       30.10R
6HR MIN TEMP:  53; 6HR MAX TEMP:  55;

PASCAGOULA     CLOUDY    52  36  54 N8        30.09S
6HR MIN TEMP:  51; 6HR MAX TEMP:  56;

GULFPORT       MOCLDY    53  35  50 N8        30.10R
6HR MIN TEMP:  52; 6HR MAX TEMP:  55;

$$



USA.gov is the U.S. government's official web portal to all federal, state and local government web resources and services.